DW1973 Weather Reports


Display with metric or nautical units.
time (UTC)temp
F
wind
direction
speed
MPH
gust
MPH
rain 1hr
in
rain 24hr
in
rain mn
in
humidity
%
barometer
mb
20260906014419 73 14 2.0 6.0 0.00 0.00 0.00 86 1016.4
20260906013928 73 13 0.0 4.0 0.00 0.00 0.00 86 1016.4
20260906013416 73 13 1.0 6.0 0.00 0.00 0.00 86 1016.5
20260906012927 73 15 2.0 13.0 0.00 0.00 0.00 86 1016.4
20260906012418 73 11 3.0 13.0 0.00 0.00 0.00 85 1016.4
20260906011926 73 12 3.0 10.0 0.00 0.00 0.00 85 1016.5
20260906011433 73 88 2.0 10.0 0.00 0.00 0.00 85 1016.5
20260906010942 73 360 3.0 10.0 0.00 0.00 0.00 85 1016.4
20260906010429 73 11 4.0 10.0 0.00 0.00 0.00 85 1016.3
20260906005926 73 13 2.0 8.0 0.00 0.00 0.00 85 1016.3
20260906005433 73 36 3.0 6.0 0.00 0.00 0.00 85 1016.2
20260906004921 73 15 4.0 9.0 0.00 0.00 0.00 85 1016.1
20260906004433 73 9 2.0 9.0 0.00 0.00 0.00 85 1016.0
20260906003922 73 65 4.0 9.0 0.00 0.00 0.00 84 1015.9
20260906003431 73 23 3.0 9.0 0.00 0.00 0.00 84 1015.8
20260906002949 73 11 3.0 10.0 0.00 0.00 0.00 85 1015.8
20260906002417 73 360 3.0 10.0 0.00 0.00 0.00 85 1015.8
20260906001950 73 21 4.0 8.0 0.00 0.00 0.00 85 1015.6
20260906001442 73 23 2.0 11.0 0.00 0.00 0.00 84 1015.6
20260906000948 74 34 3.0 11.0 0.00 0.00 0.00 84 1015.6
20260906000435 74 26 3.0 11.0 0.00 0.00 0.00 84 1015.6
20260905235952 74 25 3.0 9.0 0.00 0.00 0.00 83 1015.5
20260905235416 75 12 2.0 10.0 0.00 0.00 0.00 83 1015.5
20260905234924 75 14 3.0 10.0 0.00 0.00 0.00 83 1015.5
20260905234438 76 32 4.0 9.0 0.00 0.00 0.00 82 1015.5
20260905233925 76 360 3.0 5.0 0.00 0.00 0.00 81 1015.4
20260905233431 76 360 2.0 8.0 0.00 0.00 0.00 81 1015.4
20260905232939 77 263 2.0 9.0 0.00 0.00 0.00 80 1015.4
20260905232426 77 11 4.0 9.0 0.00 0.00 0.00 80 1015.3
20260905231915 77 17 4.0 10.0 0.00 0.00 0.00 80 1015.1
20260905231447 78 43 2.0 10.0 0.00 0.00 0.00 80 1015.1
20260905230917 78 88 1.0 9.0 0.00 0.00 0.00 80 1015.0
20260905230426 78 5 2.0 9.0 0.00 0.00 0.00 79 1015.1
20260905225916 78 273 2.0 10.0 0.00 0.00 0.00 79 1015.0
20260905225422 78 34 2.0 16.0 0.00 0.00 0.00 79 1014.9
20260905224932 79 30 4.0 16.0 0.00 0.00 0.00 79 1014.8
20260905224441 79 35 4.0 13.0 0.00 0.00 0.00 77 1014.8
20260905223929 79 46 2.0 13.0 0.00 0.00 0.00 76 1014.9
20260905223417 80 31 3.0 11.0 0.00 0.00 0.00 76 1014.7
20260905222941 80 23 3.0 11.0 0.00 0.00 0.00 75 1014.7
20260905222429 80 34 3.0 8.0 0.00 0.00 0.00 75 1014.6
20260905221938 81 25 2.0 8.0 0.00 0.00 0.00 75 1014.5
20260905221429 81 5 2.0 8.0 0.00 0.00 0.00 75 1014.7
20260905220915 81 34 2.0 10.0 0.00 0.00 0.00 75 1014.7
20260905220451 81 44 3.0 10.0 0.00 0.00 0.00 74 1014.7
20260905215920 81 248 2.0 9.0 0.00 0.00 0.00 74 1014.8
20260905215429 81 60 4.0 8.0 0.00 0.00 0.00 74 1014.8
20260905214918 81 40 2.0 6.0 0.00 0.00 0.00 74 1014.7
20260905214432 81 90 1.0 6.0 0.00 0.00 0.00 74 1014.7
20260905213918 81 15 3.0 8.0 0.00 0.00 0.00 74 1014.7
20260905213421 81 271 1.0 8.0 0.00 0.00 0.00 75 1014.7
20260905212934 81 5 2.0 7.0 0.00 0.00 0.00 75 1014.7
20260905212444 81 28 2.0 5.0 0.00 0.00 0.00 76 1014.8
20260905211951 81 20 2.0 5.0 0.00 0.00 0.00 76 1014.8
20260905211438 81 70 2.0 5.0 0.00 0.00 0.00 77 1014.7
20260905210925 80 263 1.0 3.0 0.00 0.00 0.00 78 1014.8
20260905210434 80 247 1.0 5.0 0.00 0.00 0.00 79 1014.8
20260905205926 79 5 2.0 5.0 0.00 0.00 0.00 80 1014.9
20260905205434 79 360 1.0 4.0 0.00 0.00 0.00 80 1014.9
20260905204923 80 360 2.0 5.0 0.00 0.00 0.00 80 1015.0
20260905204433 79 360 2.0 6.0 0.00 0.00 0.00 79 1015.1
20260905203922 80 17 3.0 6.0 0.00 0.00 0.00 78 1015.0
20260905203425 80 34 1.0 5.0 0.00 0.00 0.00 78 1014.9
20260905202917 80 11 2.0 4.0 0.00 0.00 0.00 78 1014.9
20260905202425 80 76 1.0 6.0 0.00 0.00 0.00 78 1014.9
20260905201932 80 242 2.0 6.0 0.00 0.00 0.00 78 1015.0
20260905201425 80 27 2.0 8.0 0.00 0.00 0.00 77 1015.0
20260905200932 80 25 1.0 8.0 0.00 0.00 0.00 77 1015.0
20260905200422 81 25 2.0 5.0 0.00 0.00 0.00 77 1015.0
20260905195933 81 61 2.0 9.0 0.00 0.00 0.00 76 1015.0
20260905195418 81 11 2.0 9.0 0.00 0.00 0.00 76 1015.0
20260905194925 81 28 1.0 6.0 0.00 0.00 0.00 77 1014.9
20260905194416 81 251 1.0 5.0 0.00 0.00 0.00 76 1015.0
20260905193954 82 224 2.0 8.0 0.00 0.00 0.00 77 1014.9
20260905193417 81 9 3.0 8.0 0.00 0.00 0.00 76 1015.0
20260905192926 82 252 2.0 6.0 0.00 0.00 0.00 76 1015.1
20260905192433 82 51 1.0 6.0 0.00 0.00 0.00 76 1015.1
20260905191940 82 26 2.0 8.0 0.00 0.00 0.00 75 1015.1
20260905191444 82 130 4.0 8.0 0.00 0.00 0.00 75 1015.1
20260905190932 82 253 1.0 11.0 0.00 0.00 0.00 76 1015.2
20260905190440 83 37 3.0 11.0 0.00 0.00 0.00 75 1015.3
20260905185926 83 15 2.0 9.0 0.00 0.00 0.00 75 1015.1
20260905185415 83 242 2.0 9.0 0.00 0.00 0.00 75 1015.0
20260905184923 83 26 3.0 7.0 0.00 0.00 0.00 75 1015.0
20260905184414 83 29 3.0 6.0 0.00 0.00 0.00 75 1015.1
20260905183923 83 231 2.0 6.0 0.00 0.00 0.00 76 1015.1
20260905183431 83 254 3.0 7.0 0.00 0.00 0.00 75 1015.1
20260905182919 83 271 1.0 6.0 0.00 0.00 0.00 75 1015.2
20260905182428 83 9 1.0 5.0 0.00 0.00 0.00 74 1015.1
20260905181916 84 332 2.0 5.0 0.00 0.00 0.00 73 1015.1
20260905181425 84 11 1.0 6.0 0.00 0.00 0.00 74 1015.1
20260905180913 84 5 2.0 6.0 0.00 0.00 0.00 73 1015.0
20260905180421 84 5 1.0 6.0 0.00 0.00 0.00 74 1015.0
20260905175928 84 10 1.0 6.0 0.00 0.00 0.00 75 1015.0
20260905175438 84 23 3.0 5.0 0.00 0.00 0.00 74 1015.0
20260905174947 84 69 2.0 6.0 0.00 0.00 0.00 73 1014.9
20260905174416 84 336 2.0 6.0 0.00 0.00 0.00 73 1015.0
20260905173925 85 15 1.0 6.0 0.00 0.00 0.00 73 1015.0
20260905173413 84 101 2.0 6.0 0.00 0.00 0.00 74 1014.9
20260905172938 84 31 2.0 6.0 0.00 0.00 0.00 74 1015.0
20260905172424 84 62 2.0 5.0 0.00 0.00 0.00 74 1015.0
20260905171912 84 32 2.0 5.0 0.00 0.00 0.00 75 1015.0
20260905171420 84 109 2.0 6.0 0.00 0.00 0.00 75 1015.0
20260905170927 84 68 1.0 6.0 0.00 0.00 0.00 74 1015.0
20260905170435 84 50 2.0 9.0 0.00 0.00 0.00 75 1015.0
20260905165925 84 11 2.0 9.0 0.00 0.00 0.00 74 1014.9
20260905165435 85 355 2.0 6.0 0.00 0.00 0.00 73 1015.1
20260905164944 85 40 2.0 6.0 0.00 0.00 0.00 73 1015.1
20260905164432 85 5 1.0 5.0 0.00 0.00 0.00 75 1015.2
20260905163921 84 348 2.0 5.0 0.00 0.00 0.00 74 1015.2
20260905163426 85 316 3.0 8.0 0.00 0.00 0.00 73 1015.1
20260905162918 85 42 2.0 8.0 0.00 0.00 0.00 74 1015.1
20260905162426 84 107 1.0 8.0 0.00 0.00 0.00 75 1015.0
20260905161912 84 56 3.0 8.0 0.00 0.00 0.00 75 1015.1
20260905161425 84 311 3.0 5.0 0.00 0.00 0.00 74 1015.1
20260905160914 84 81 2.0 5.0 0.00 0.00 0.00 75 1015.1
20260905160451 83 30 2.0 6.0 0.00 0.00 0.00 76 1015.1
20260905155941 83 323 1.0 6.0 0.00 0.00 0.00 78 1015.0
20260905155427 83 5 1.0 6.0 0.00 0.00 0.00 78 1015.0
20260905154917 82 91 1.0 6.0 0.00 0.00 0.00 78 1015.0
20260905154427 82 331 1.0 4.0 0.00 0.00 0.00 79 1015.0
20260905153915 81 48 2.0 5.0 0.00 0.00 0.00 80 1015.0
20260905153448 81 290 1.0 7.0 0.00 0.00 0.00 81 1015.0
20260905152920 81 21 1.0 7.0 0.00 0.00 0.00 81 1015.0
20260905152430 81 288 3.0 6.0 0.00 0.00 0.00 80 1014.9
20260905151919 81 290 3.0 9.0 0.00 0.00 0.00 80 1014.8
20260905151451 81 13 2.0 9.0 0.00 0.00 0.00 81 1014.7
20260905150918 80 42 2.0 9.0 0.00 0.00 0.00 81 1014.6
20260905150427 80 288 3.0 9.0 0.00 0.00 0.00 81 1014.7
20260905145916 80 22 3.0 9.0 0.00 0.00 0.00 82 1014.6
20260905145426 80 36 4.0 9.0 0.00 0.00 0.00 82 1014.7
20260905144935 80 360 1.0 9.0 0.00 0.00 0.00 83 1014.5
20260905144424 79 19 3.0 9.0 0.00 0.00 0.00 83 1014.6
20260905143932 79 29 3.0 6.0 0.00 0.00 0.00 84 1014.6
20260905143421 78 16 3.0 5.0 0.00 0.00 0.00 85 1014.6
20260905142930 78 34 2.0 6.0 0.00 0.00 0.00 86 1014.6
20260905142441 77 360 2.0 8.0 0.00 0.00 0.00 87 1014.6
20260905141926 77 48 2.0 8.0 0.00 0.00 0.00 88 1014.5
20260905141416 76 42 2.0 5.0 0.00 0.00 0.00 89 1014.4
20260905140952 76 26 2.0 5.0 0.00 0.00 0.00 90 1014.4
20260905140419 76 59 1.0 5.0 0.00 0.00 0.00 90 1014.4
20260905135926 76 14 2.0 6.0 0.00 0.00 0.00 90 1014.3
20260905135432 76 18 3.0 8.0 0.00 0.00 0.00 89 1014.4
20260905134921 76 301 4.0 8.0 0.00 0.00 0.00 89 1014.3
20260905134433 76 19 1.0 5.0 0.00 0.00 0.00 90 1014.4
20260905133923 76 33 1.0 5.0 0.00 0.00 0.00 90 1014.3
20260905133413 76 5 1.0 6.0 0.00 0.00 0.00 90 1014.5
20260905132922 75 88 2.0 9.0 0.00 0.00 0.00 90 1014.6
20260905132432 75 12 3.0 9.0 0.00 0.00 0.00 90 1014.7
20260905131917 76 13 2.0 4.0 0.00 0.00 0.00 91 1014.8
20260905131448 75 53 1.0 4.0 0.00 0.00 0.00 91 1014.5
20260905130914 75 9 2.0 5.0 0.00 0.00 0.00 90 1014.3
20260905130422 76 279 2.0 5.0 0.00 0.00 0.00 90 1014.2
20260905125935 76 15 2.0 8.0 0.00 0.00 0.00 90 1014.1
20260905125452 76 26 2.0 8.0 0.00 0.00 0.00 90 1014.0
20260905124916 76 13 1.0 8.0 0.00 0.00 0.00 90 1013.9
20260905124428 76 44 2.0 8.0 0.00 0.00 0.00 90 1013.9
20260905123937 76 36 2.0 5.0 0.00 0.00 0.00 91 1013.8
20260905123421 76 323 1.0 5.0 0.00 0.00 0.00 91 1013.7
20260905122929 76 24 1.0 4.0 0.00 0.00 0.00 91 1013.6
20260905122417 76 12 1.0 3.0 0.00 0.00 0.00 91 1013.6
20260905121925 76 5 1.0 4.0 0.00 0.00 0.00 91 1013.7
20260905121436 76 11 2.0 4.0 0.00 0.00 0.00 91 1013.6
20260905120953 76 49 0.0 3.0 0.00 0.00 0.00 92 1013.6
20260905120421 76 42 1.0 3.0 0.00 0.00 0.00 92 1013.5
20260905115932 76 24 0.0 3.0 0.00 0.00 0.00 92 1013.5
20260905115417 76 17 1.0 3.0 0.00 0.00 0.00 92 1013.5
20260905114952 77 233 1.0 3.0 0.00 0.00 0.00 91 1013.3
20260905114424 77 144 0.0 0.0 0.00 0.00 0.00 91 1013.2
20260905113927 77 169 0.0 0.0 0.00 0.00 0.00 91 1013.0
20260905113417 77 183 0.0 1.0 0.00 0.00 0.00 91 1013.0
20260905112929 77 178 0.0 1.0 0.00 0.00 0.00 91 1012.9
20260905112418 77 175 0.0 0.0 0.00 0.00 0.00 91 1012.8
20260905111925 77 180 0.0 0.0 0.00 0.00 0.00 91 1012.8
20260905111436 77 360 0.0 0.0 0.00 0.00 0.00 91 1012.8
20260905110924 77 134 0.0 2.0 0.00 0.00 0.00 91 1012.7
20260905110433 77 138 0.0 2.0 0.00 0.00 0.00 91 1012.7
20260905105945 78 145 0.0 2.0 0.00 0.00 0.00 92 1012.7
20260905105414 78 136 0.0 1.0 0.00 0.00 0.00 92 1012.7
20260905104925 78 136 0.0 0.0 0.00 0.00 0.00 92 1012.7
20260905104433 78 360 0.0 0.0 0.00 0.00 0.00 92 1012.8
20260905103935 78 189 0.0 0.0 0.00 0.00 0.00 91 1012.8
20260905103423 78 188 0.0 0.0 0.00 0.00 0.00 91 1012.7
20260905102951 78 189 0.0 0.0 0.00 0.00 0.00 91 1012.7
20260905102439 78 194 0.0 0.0 0.00 0.00 0.00 91 1012.7
20260905101946 78 190 0.0 0.0 0.00 0.00 0.00 91 1012.7
20260905101417 78 190 0.0 0.0 0.00 0.00 0.00 91 1012.7
20260905100925 78 190 0.0 0.0 0.00 0.00 0.00 91 1012.6
20260905100433 78 191 0.0 0.0 0.00 0.00 0.00 91 1012.6
20260905095923 78 188 0.0 0.0 0.00 0.00 0.00 91 1012.7
20260905095432 78 189 0.0 0.0 0.00 0.00 0.00 90 1012.8
20260905094922 78 190 0.0 0.0 0.00 0.00 0.00 90 1012.7
20260905094425 78 187 0.0 0.0 0.00 0.00 0.00 90 1012.7
20260905093933 78 189 0.0 0.0 0.00 0.00 0.00 90 1012.6
20260905093420 78 190 0.0 0.0 0.00 0.00 0.00 90 1012.7
20260905092932 78 190 0.0 0.0 0.00 0.00 0.00 90 1012.6
20260905092418 78 190 0.0 0.0 0.00 0.00 0.00 90 1012.6
20260905091924 78 190 0.0 0.0 0.00 0.00 0.00 90 1012.6
20260905091416 78 190 0.0 0.0 0.00 0.00 0.00 90 1012.5
20260905090925 78 189 0.0 0.0 0.00 0.00 0.00 89 1012.6
20260905090413 78 191 0.0 0.0 0.00 0.00 0.00 89 1012.6
20260905085924 79 190 0.0 0.0 0.00 0.00 0.00 89 1012.7
20260905085432 79 192 0.0 0.0 0.00 0.00 0.00 89 1012.7
20260905084922 79 188 0.0 0.0 0.00 0.00 0.00 89 1012.7
20260905084430 79 188 0.0 0.0 0.00 0.00 0.00 89 1012.6
20260905083919 79 186 0.0 0.0 0.00 0.00 0.00 89 1012.6
20260905083427 79 190 0.0 0.0 0.00 0.00 0.00 89 1012.6
20260905082932 79 189 0.0 0.0 0.00 0.00 0.00 88 1012.7
20260905082440 79 188 0.0 1.0 0.00 0.00 0.00 88 1012.6
20260905081930 79 192 0.0 1.0 0.00 0.00 0.00 88 1012.6
20260905081443 79 183 0.0 0.0 0.00 0.00 0.00 88 1012.7
20260905080928 79 186 0.0 0.0 0.00 0.00 0.00 88 1012.7
20260905080437 79 188 0.0 0.0 0.00 0.00 0.00 89 1012.5
20260905075927 79 190 0.0 0.0 0.00 0.00 0.00 89 1012.5
20260905075435 79 192 0.0 0.0 0.00 0.00 0.00 89 1012.5
20260905074920 78 189 0.0 0.0 0.00 0.00 0.00 88 1012.6
20260905074414 78 185 0.0 0.0 0.00 0.00 0.00 88 1012.6
20260905073918 78 187 0.0 1.0 0.00 0.00 0.00 88 1012.6
20260905073425 78 187 0.0 1.0 0.00 0.00 0.00 88 1012.6
20260905072915 78 187 0.0 1.0 0.00 0.00 0.00 88 1012.6
20260905072423 78 186 0.0 1.0 0.00 0.00 0.00 88 1012.7
20260905071930 79 174 0.0 0.0 0.00 0.00 0.00 88 1012.7
20260905071451 79 182 0.0 0.0 0.00 0.00 0.00 88 1012.8
20260905070919 79 188 0.0 0.0 0.00 0.00 0.00 87 1012.8
20260905070425 79 184 0.0 0.0 0.00 0.00 0.00 87 1012.8
20260905065914 79 184 0.0 0.0 0.00 0.00 0.00 87 1012.9
20260905065423 79 190 0.0 0.0 0.00 0.00 0.00 87 1013.0
20260905064933 79 186 0.0 0.0 0.00 0.00 0.00 87 1012.9
20260905064444 79 188 0.0 0.0 0.00 0.00 0.00 87 1012.8
20260905063926 79 188 0.0 0.0 0.00 0.00 0.00 86 1013.0
20260905063414 80 185 0.0 0.0 0.00 0.00 0.00 86 1013.0
20260905062945 80 360 0.0 0.0 0.00 0.00 0.00 86 1013.1
20260905062432 80 187 0.0 0.0 0.00 0.00 0.00 85 1013.0
20260905061919 80 186 0.0 0.0 0.00 0.00 0.00 85 1013.1
20260905061432 80 184 0.0 0.0 0.00 0.00 0.00 85 1013.0
20260905060920 80 195 0.0 0.0 0.00 0.00 0.00 85 1013.0
20260905060427 81 182 0.0 0.0 0.00 0.00 0.00 84 1013.0
20260905055918 81 130 0.0 0.0 0.00 0.00 0.00 84 1013.1
20260905055424 81 360 0.0 0.0 0.00 0.00 0.00 84 1013.2
20260905054931 81 360 0.0 0.0 0.00 0.00 0.00 83 1013.1
20260905054442 81 360 0.0 0.0 0.00 0.00 0.00 83 1013.2
20260905053923 81 360 0.0 0.0 0.00 0.00 0.00 83 1013.2
20260905053431 82 360 0.0 0.0 0.00 0.00 0.00 82 1013.1
20260905052921 82 142 0.0 1.0 0.00 0.00 0.00 82 1013.1
20260905052429 82 142 0.0 1.0 0.00 0.00 0.00 82 1013.2
20260905051939 82 143 0.0 0.0 0.00 0.00 0.00 82 1013.1
20260905051427 82 144 0.0 1.0 0.00 0.00 0.00 82 1013.1
20260905050933 83 146 0.0 1.0 0.00 0.00 0.00 82 1013.0
20260905050441 83 146 0.0 1.0 0.00 0.00 0.00 82 1013.1
20260905045934 83 148 0.0 0.0 0.00 0.00 0.00 81 1013.0
20260905045422 83 150 0.0 0.0 0.00 0.00 0.00 81 1013.0
20260905044927 84 151 0.0 0.0 0.00 0.00 0.00 80 1013.0
20260905044415 84 152 0.0 0.0 0.00 0.00 0.00 80 1012.9
20260905043930 84 151 0.0 0.0 0.00 0.00 0.00 80 1012.8
20260905043441 84 151 0.0 1.0 0.00 0.00 0.00 80 1013.0
20260905042923 84 151 0.0 2.0 0.00 0.00 0.00 80 1013.0
20260905042428 84 150 0.0 2.0 0.00 0.00 0.00 80 1013.0
20260905041915 84 150 1.0 6.0 0.00 0.00 0.00 80 1013.0
20260905041445 84 150 2.0 5.0 0.00 0.00 0.00 80 1013.0
20260905040931 84 139 0.0 2.0 0.00 0.00 0.00 81 1013.1
20260905040420 83 138 1.0 2.0 0.00 0.00 0.00 81 1013.0
20260905035931 83 139 0.0 4.0 0.00 0.00 0.00 81 1012.9
20260905035419 83 138 2.0 4.0 0.00 0.00 0.00 81 1012.7
20260905034926 83 140 2.0 4.0 0.00 0.00 0.00 81 1012.8
20260905034415 83 142 2.0 4.0 0.00 0.00 0.00 82 1012.9
20260905033925 83 142 2.0 3.0 0.00 0.00 0.00 82 1013.2
20260905033415 83 143 0.0 2.0 0.00 0.00 0.00 82 1013.4
20260905032927 83 143 0.0 2.0 0.00 0.00 0.00 82 1013.6
20260905032436 83 143 1.0 3.0 0.00 0.00 0.00 82 1013.6
20260905031942 83 143 1.0 3.0 0.00 0.00 0.00 82 1013.6
20260905031426 83 144 0.0 0.0 0.00 0.00 0.00 83 1013.6
20260905030933 83 144 0.0 0.0 0.00 0.00 0.00 83 1013.6
20260905030442 83 143 0.0 0.0 0.00 0.00 0.00 83 1013.7
20260905025935 83 144 0.0 0.0 0.00 0.00 0.00 83 1013.7
20260905025445 83 144 0.0 0.0 0.00 0.00 0.00 82 1013.7
20260905024932 83 145 0.0 0.0 0.00 0.00 0.00 82 1013.7
20260905024436 83 146 0.0 0.0 0.00 0.00 0.00 82 1013.7
20260905023942 83 145 0.0 0.0 0.00 0.00 0.00 81 1013.6
20260905023449 83 146 0.0 0.0 0.00 0.00 0.00 81 1013.7
20260905022917 83 144 0.0 0.0 0.00 0.00 0.00 81 1013.6
20260905022428 84 144 0.0 0.0 0.00 0.00 0.00 80 1013.5
20260905021937 84 199 0.0 0.0 0.00 0.00 0.00 80 1013.5
20260905021426 84 202 0.0 0.0 0.00 0.00 0.00 80 1013.3
20260905020934 84 203 0.0 0.0 0.00 0.00 0.00 79 1013.2
20260905020423 85 203 0.0 0.0 0.00 0.00 0.00 79 1013.2
20260905015916 85 204 0.0 0.0 0.00 0.00 0.00 78 1013.0
20260905015425 85 204 0.0 0.0 0.00 0.00 0.00 78 1013.0
20260905014926 85 204 0.0 0.0 0.00 0.00 0.00 78 1013.0